Wind_Speed
18 18 18 18 19 20 21 21 23 22 22 20 22 23 23 23 23 24 26 28 29 31 32 33 34 34 36 37 38 38 38 38 39 40 40 42 43 43 44 44 45 45 45 44
18 18 19 20 20 20 21 22 22 22 21 20 22 23 23 23 23 24 26 27 29 31 32 32 33 34 34 35 37 38 38 39 40 40 41 41 42 43 44 45 46 47 46 45
19 19 20 19 19 20 21 21 21 22 21 21 22 23 24 24 24 24 26 28 29 29 30 31 32 33 34 35 36 37 38 39 40 40 41 41 42 42 43 43 44 44 45 45
18 19 20 19 19 20 21 21 20 21 21 22 22 22 23 24 24 24 25 27 28 28 28 29 30 32 33 34 35 36 38 40 41 41 41 41 41 42 41 42 42 42 43 44
19 20 20 19 19 20 21 21 21 21 21 21 22 23 23 23 23 24 24 25 26 26 28 29 30 31 32 33 34 35 36 38 39 40 40 41 40 40 40 40 41 41 42 41
19 20 20 19 18 19 20 21 21 22 22 22 22 23 22 23 23 23 23 24 25 25 27 28 29 30 30 32 33 34 35 36 37 39 39 40 40 39 39 39 39 39 40 40
20 20 20 19 19 19 20 20 21 22 23 24 24 24 23 23 24 24 25 24 25 25 25 27 28 29 30 32 32 33 34 35 35 36 36 37 38 39 39 38 38 38 39 39
20 20 20 19 19 20 20 21 22 23 24 24 25 25 25 24 23 24 25 25 26 26 26 27 28 29 30 30 31 32 32 34 34 34 34 35 35 36 37 37 37 38 38 37
21 21 21 20 21 21 22 23 23 23 24 24 24 25 25 25 25 25 25 26 27 27 28 28 29 29 30 30 30 31 31 32 33 34 34 34 34 34 33 35 35 35 35 35
22 21 22 22 22 23 24 24 24 24 24 24 24 24 24 25 26 26 26 27 27 28 29 29 30 31 31 31 31 31 31 31 31 31 32 33 33 33 32 33 33 34 34 34
21 21 23 23 24 24 23 23 23 24 23 24 25 25 25 25 25 25 26 27 28 29 30 30 30 31 31 32 31 31 31 31 31 31 31 31 31 30 32 32 32 33 33 33
22 23 24 23 24 23 22 23 23 23 24 24 24 24 25 25 25 26 27 27 28 28 30 30 31 31 32 32 31 31 31 31 30 30 29 30 30 30 30 31 32 32 32 32
22 23 24 24 23 23 22 22 23 23 23 24 23 24 24 25 26 27 28 28 29 29 29 30 30 30 31 30 30 30 30 29 29 29 29 28 28 28 28 29 29 29 29 29
23 23 23 23 23 23 23 22 22 23 23 23 24 24 25 25 26 27 28 29 29 29 29 29 29 29 30 30 30 30 29 29 30 30 30 29 27 27 27 27 26 27 27 27
23 23 23 23 23 23 23 23 23 23 23 23 24 24 25 26 27 27 28 28 29 28 28 29 29 29 29 30 30 30 30 30 30 29 29 28 27 26 25 25 25 26 26 26
24 24 24 24 24 24 24 24 24 24 24 24 24 24 25 26 26 26 27 27 27 27 27 27 27 27 27 27 28 28 28 28 27 27 27 27 26 26 25 25 24 25 25 26
25 25 25 25 25 25 25 25 25 25 25 26 26 26 25 25 25 25 26 26 26 26 25 26 25 25 25 25 25 25 26 26 26 26 26 26 26 25 25 24 23 24 24 24
25 25 25 26 26 26 26 26 26 27 27 27 27 27 26 26 25 25 24 24 24 24 25 25 25 25 24 24 24 24 25 25 25 25 25 25 24 24 23 23 22 23 23 22
25 25 26 26 26 27 27 27 27 27 28 28 28 27 27 26 26 25 25 24 24 24 24 25 24 24 23 22 22 22 23 23 23 23 23 23 23 23 23 23 22 22 22 21
26 26 26 26 27 27 26 26 26 27 27 27 27 26 26 26 26 25 24 23 23 23 23 23 23 23 23 23 22 22 22 22 21 21 21 21 22 22 22 22 21 21 20 20
26 26 26 27 27 26 26 26 25 25 25 26 26 26 25 25 25 24 24 23 22 22 22 22 23 23 23 22 21 21 20 20 20 19 19 19 20 20 20 20 20 20 19 19
26 26 26 27 27 26 26 25 24 24 24 24 24 24 24 24 23 23 23 23 22 22 22 22 22 22 22 21 20 19 19 19 18 18 18 18 18 18 18 18 18 18 18 18
26 26 26 26 25 25 24 23 23 23 23 22 22 22 22 21 21 21 21 21 22 22 22 21 21 21 21 21 20 19 18 17 17 16 16 17 17 17 17 17 17 17 18 18
25 24 24 24 23 22 22 21 22 22 22 21 21 21 21 20 20 21 21 21 20 20 20 21 21 20 20 19 19 18 17 16 16 15 15 16 16 16 16 16 16 17 17 17
23 23 22 22 22 21 21 21 21 20 20 20 20 20 19 20 20 20 20 19 19 19 20 19 19 19 18 18 18 17 16 15 14 14 15 15 15 15 16 16 17 17 17 16
22 22 22 22 21 21 21 20 20 20 19 19 19 19 19 19 18 18 18 17 17 17 17 16 15 16 16 16 16 16 15 14 14 13 13 13 13 14 15 15 15 15 15 15
21 21 21 21 21 21 21 20 20 19 19 19 18 18 18 17 17 17 16 16 15 15 14 14 14 14 14 15 15 15 14 13 12 12 12 12 13 13 13 14 14 14 14 14
Wind_Direction
265 265 261 258 260 260 260 261 263 263 265 265 262 259 256 254 254 253 253 252 253 254 252 252 253 254 255 253 252 253 256 257 257 258 260 261 262 264 266 266 267 268 269 270
267 267 264 262 263 262 261 263 266 268 265 264 261 259 257 257 257 256 255 256 257 257 255 254 255 255 254 254 254 255 256 257 258 260 262 263 264 266 267 267 268 267 268 270
271 269 269 267 265 263 263 266 268 268 268 266 263 262 262 261 260 257 255 257 259 259 257 257 257 256 255 255 256 257 258 259 260 261 262 264 265 266 267 268 268 267 267 269
275 272 271 273 269 265 265 264 265 266 267 269 268 266 263 262 261 259 257 256 259 259 258 257 258 258 257 257 259 260 261 260 261 262 263 265 267 267 268 268 268 268 269 269
279 276 275 275 273 269 267 264 264 267 269 269 267 266 265 264 262 261 259 258 258 259 259 259 260 260 261 261 262 263 263 263 264 264 265 267 267 267 267 268 268 269 269 270
277 278 279 277 276 273 272 269 267 268 271 272 269 267 265 263 262 259 257 258 258 260 261 261 262 263 264 265 264 265 265 266 266 267 267 267 266 267 267 269 269 269 270 271
276 278 279 279 279 278 278 276 272 272 271 271 269 268 267 266 264 260 258 258 259 261 262 263 263 265 266 268 268 269 268 268 268 269 268 267 267 268 268 269 268 269 271 271
279 278 280 281 281 280 280 278 276 275 274 272 269 268 267 266 266 264 262 261 260 261 263 264 265 266 268 269 270 270 270 269 269 270 269 268 269 270 269 268 268 269 270 269
277 277 277 280 283 283 283 282 279 277 276 275 272 269 268 267 266 266 265 265 264 263 264 265 266 268 269 270 271 271 272 272 271 271 270 270 271 271 269 268 268 269 268 267
272 273 274 277 280 283 284 284 282 280 278 277 274 272 271 269 268 268 267 265 265 265 266 267 267 269 270 272 273 273 274 274 273 272 271 271 270 269 269 270 269 268 266 265
272 272 273 276 280 282 283 282 281 281 280 280 276 272 271 271 270 270 270 268 267 267 268 268 268 269 271 272 272 273 274 273 273 272 272 272 271 270 269 268 268 267 265 264
272 273 274 275 277 278 278 278 279 279 280 281 279 274 271 271 271 271 271 270 268 267 267 268 268 269 272 273 273 273 273 272 273 272 272 272 271 270 271 268 267 266 266 265
271 272 273 274 275 275 275 276 277 278 279 281 280 276 273 271 271 272 272 271 269 268 269 270 271 271 272 271 271 271 272 273 272 271 271 273 273 273 272 270 268 266 266 266
273 273 272 272 274 274 274 274 276 278 280 279 277 276 275 273 273 274 273 271 270 270 270 270 271 272 271 271 271 271 272 272 272 271 271 271 274 273 271 269 267 266 266 268
276 275 272 271 272 273 274 275 276 278 280 279 278 278 277 275 274 273 273 271 269 269 269 269 270 272 271 271 271 271 270 271 271 270 269 271 271 270 271 271 270 269 268 270
276 275 273 271 271 272 273 274 277 277 278 278 277 276 277 277 277 276 274 272 269 269 268 269 271 272 272 271 271 270 269 269 268 268 268 269 269 270 272 272 271 271 271 271
275 273 273 273 273 273 274 276 276 276 277 278 277 276 277 277 278 277 275 272 271 269 268 268 270 272 273 271 269 268 269 269 269 268 266 266 267 268 270 270 270 270 270 271
273 271 272 274 276 276 276 276 276 275 276 277 278 277 277 277 278 277 274 272 271 269 268 268 269 270 271 271 269 267 267 267 268 266 264 265 265 266 269 269 268 269 269 268
273 272 273 276 278 279 279 279 277 276 277 278 277 277 276 275 276 276 275 272 271 269 267 267 266 266 268 269 268 268 268 268 269 268 265 264 264 265 267 267 269 270 270 267
275 274 275 277 279 280 281 282 280 278 277 277 277 276 276 276 275 275 274 272 269 267 265 265 264 265 267 269 269 269 268 267 266 267 268 267 264 264 263 263 265 266 265 263
276 276 277 277 279 281 282 283 282 280 279 277 277 276 276 276 275 274 272 270 268 267 267 266 265 265 266 268 268 268 267 266 265 266 266 264 263 262 261 261 261 262 262 261
277 278 278 279 279 280 282 282 282 281 280 279 280 278 277 275 274 273 271 269 268 268 266 266 265 265 265 265 265 266 266 265 265 264 262 261 260 260 260 259 259 260 260 261
278 278 278 279 280 280 281 281 281 281 280 280 281 279 276 274 273 272 271 270 269 268 266 265 265 264 263 262 262 263 263 262 263 262 261 260 258 258 258 256 257 259 259 261
279 278 277 277 278 279 280 280 280 281 280 279 280 279 276 273 272 272 272 271 269 268 267 265 264 262 259 258 258 257 257 258 259 259 258 257 256 256 256 256 257 259 259 259
280 278 276 275 276 277 278 278 280 281 281 280 279 279 277 274 272 271 270 269 268 267 268 266 263 259 254 253 251 250 249 251 252 252 253 253 253 255 256 257 257 257 256 256
281 278 276 275 275 276 276 276 279 281 281 281 280 278 276 274 272 270 268 267 267 266 264 261 256 252 249 246 245 243 243 245 246 248 250 251 253 254 254 255 256 255 255 254
282 279 276 275 275 274 274 275 278 279 279 279 278 275 273 271 269 266 263 261 262 261 260 258 253 248 245 243 242 240 240 241 244 247 249 252 255 254 253 255 256 256 256 254
Height
5600 5600 5600 5600 5600 5600 5600 5601 5601 5602 5602 5604 5602 5602 5603 5604 5604 5605 5607 5608 5610 5611 5612 5614 5615 5617 5618 5619 5621 5623 5624 5626 5628 5629 5631 5632 5633 5634 5635 5636 5636 5637 5637 5637
5594 5594 5594 5594 5595 5595 5595 5595 5595 5595 5597 5598 5596 5596 5597 5597 5598 5599 5600 5601 5602 5603 5604 5605 5607 5608 5609 5610 5612 5613 5615 5616 5618 5619 5621 5621 5622 5623 5624 5624 5624 5625 5626 5626
5589 5589 5588 5589 5591 5590 5590 5590 5590 5589 5591 5590 5590 5590 5590 5591 5591 5592 5592 5593 5594 5595 5596 5597 5598 5599 5600 5601 5603 5604 5605 5606 5608 5609 5610 5611 5611 5611 5612 5612 5612 5613 5613 5613
5583 5583 5582 5587 5585 5584 5583 5584 5584 5583 5584 5584 5583 5583 5584 5584 5584 5585 5585 5585 5586 5587 5588 5588 5589 5590 5591 5592 5593 5594 5595 5596 5597 5598 5599 5599 5599 5600 5600 5600 5601 5601 5601 5601
5577 5576 5577 5579 5578 5577 5577 5578 5578 5577 5577 5577 5576 5576 5577 5577 5576 5577 5578 5578 5579 5579 5580 5580 5581 5581 5582 5583 5583 5584 5585 5586 5586 5587 5587 5588 5588 5588 5588 5589 5589 5589 5589 5589
5572 5571 5571 5574 5572 5570 5570 5571 5572 5571 5570 5570 5569 5569 5571 5570 5569 5570 5570 5570 5571 5571 5571 5572 5572 5572 5573 5573 5574 5574 5575 5575 5575 5576 5576 5576 5576 5577 5577 5577 5578 5578 5578 5578
5566 5565 5565 5567 5565 5564 5565 5566 5564 5563 5563 5563 5562 5563 5563 5562 5562 5562 5562 5563 5563 5563 5564 5564 5564 5564 5564 5564 5564 5564 5564 5565 5565 5565 5565 5565 5566 5565 5566 5566 5566 5567 5567 5567
5560 5560 5562 5560 5559 5558 5558 5557 5557 5556 5556 5555 5555 5555 5555 5555 5555 5554 5554 5555 5555 5555 5556 5556 5556 5556 5556 5556 5555 5555 5555 5555 5555 5555 5555 5555 5555 5555 5555 5555 5555 5555 5556 5556
5555 5556 5555 5553 5552 5551 5551 5550 5550 5549 5549 5549 5548 5548 5548 5548 5547 5547 5546 5547 5547 5547 5548 5548 5547 5547 5547 5547 5546 5546 5546 5545 5545 5544 5544 5544 5544 5544 5544 5544 5544 5544 5545 5545
5547 5547 5547 5546 5545 5545 5544 5543 5543 5542 5541 5541 5541 5540 5540 5540 5539 5539 5539 5538 5538 5539 5539 5539 5538 5538 5538 5538 5537 5537 5536 5535 5535 5535 5534 5534 5534 5534 5534 5534 5534 5534 5534 5535
5539 5540 5539 5539 5538 5538 5537 5536 5535 5534 5533 5533 5532 5532 5532 5532 5531 5531 5530 5530 5530 5530 5530 5530 5530 5529 5529 5529 5528 5528 5527 5526 5526 5525 5525 5525 5524 5524 5524 5524 5524 5524 5524 5524
5533 5533 5532 5532 5531 5530 5529 5529 5528 5527 5526 5525 5524 5524 5524 5523 5523 5523 5522 5522 5521 5521 5521 5521 5520 5520 5520 5519 5518 5518 5518 5517 5517 5516 5516 5516 5515 5515 5513 5514 5514 5514 5514 5515
5525 5524 5523 5523 5523 5522 5522 5521 5520 5520 5518 5517 5516 5516 5516 5515 5515 5514 5513 5512 5512 5512 5512 5511 5511 5510 5510 5510 5509 5509 5509 5508 5508 5508 5507 5507 5506 5506 5505 5505 5504 5505 5505 5505
5516 5516 5516 5515 5515 5514 5514 5513 5513 5512 5511 5510 5509 5508 5508 5507 5506 5505 5504 5503 5503 5502 5502 5502 5502 5501 5501 5500 5500 5499 5499 5499 5499 5499 5499 5499 5498 5498 5497 5497 5497 5497 5497 5497
5508 5507 5507 5507 5506 5506 5506 5505 5505 5504 5503 5502 5501 5500 5499 5498 5497 5496 5495 5494 5494 5493 5493 5493 5493 5492 5491 5491 5491 5490 5490 5490 5490 5490 5490 5490 5490 5490 5489 5489 5489 5489 5489 5489
5500 5499 5498 5498 5498 5498 5497 5497 5497 5496 5495 5494 5493 5492 5491 5489 5488 5487 5486 5485 5485 5484 5484 5484 5484 5483 5483 5482 5482 5482 5482 5481 5481 5481 5482 5482 5482 5482 5482 5482 5482 5482 5482 5482
5491 5490 5490 5490 5489 5489 5489 5488 5488 5487 5486 5485 5484 5483 5482 5481 5479 5478 5477 5477 5476 5476 5475 5475 5475 5475 5475 5474 5474 5474 5474 5473 5473 5473 5473 5474 5474 5474 5474 5474 5474 5474 5474 5474
5482 5482 5481 5481 5481 5480 5480 5479 5478 5478 5477 5476 5475 5474 5473 5472 5471 5470 5469 5468 5468 5467 5467 5467 5467 5467 5467 5466 5466 5466 5465 5465 5465 5465 5465 5465 5466 5466 5467 5467 5467 5467 5467 5466
5473 5473 5473 5472 5472 5471 5470 5470 5469 5468 5467 5466 5466 5465 5464 5463 5462 5461 5460 5460 5459 5459 5459 5458 5458 5459 5459 5459 5458 5458 5458 5458 5457 5457 5458 5458 5458 5459 5459 5459 5459 5460 5460 5460
5464 5464 5464 5464 5463 5462 5461 5461 5460 5459 5458 5457 5456 5455 5454 5454 5453 5452 5452 5451 5451 5450 5450 5450 5451 5451 5451 5451 5451 5451 5451 5450 5450 5450 5451 5451 5451 5451 5452 5452 5453 5453 5453 5453
5456 5455 5455 5455 5454 5453 5452 5452 5451 5450 5449 5448 5447 5446 5445 5444 5444 5443 5443 5443 5443 5442 5442 5442 5443 5443 5443 5443 5443 5443 5443 5444 5444 5444 5444 5444 5444 5445 5445 5446 5446 5447 5447 5447
5447 5447 5446 5446 5446 5445 5444 5443 5442 5441 5440 5439 5438 5437 5436 5435 5435 5434 5434 5434 5435 5434 5435 5435 5435 5435 5436 5436 5436 5437 5437 5437 5437 5437 5438 5438 5439 5439 5440 5440 5441 5441 5442 5442
5438 5438 5437 5437 5437 5436 5435 5434 5433 5432 5431 5431 5430 5429 5428 5427 5427 5427 5427 5427 5427 5427 5427 5427 5427 5428 5428 5429 5429 5430 5430 5431 5431 5432 5432 5433 5433 5434 5434 5435 5435 5436 5437 5437
5429 5429 5429 5428 5428 5428 5427 5427 5426 5425 5424 5423 5422 5421 5420 5420 5419 5419 5419 5419 5419 5419 5419 5420 5420 5421 5421 5422 5423 5424 5424 5425 5425 5426 5426 5427 5427 5428 5429 5429 5430 5431 5431 5431
5421 5421 5421 5421 5420 5420 5420 5419 5418 5417 5416 5415 5414 5413 5413 5412 5412 5412 5412 5412 5412 5412 5413 5413 5413 5414 5414 5415 5417 5418 5418 5419 5420 5421 5421 5422 5422 5423 5424 5424 5425 5425 5426 5426
5413 5413 5413 5413 5413 5412 5412 5411 5411 5410 5409 5409 5408 5407 5406 5406 5405 5405 5405 5406 5406 5406 5406 5406 5407 5408 5408 5410 5411 5412 5413 5414 5415 5416 5417 5417 5418 5418 5419 5419 5420 5420 5420 5421
5406 5405 5405 5405 5405 5405 5404 5404 5404 5403 5403 5402 5401 5401 5400 5400 5399 5399 5399 5400 5400 5401 5401 5401 5402 5403 5403 5405 5406 5407 5408 5409 5410 5411 5412 5413 5413 5414 5414 5414 5415 5415 5415 5416